PDT,Max TemperatureF,Mean TemperatureF,Min TemperatureF,Max Dew PointF,MeanDew PointF,Min DewpointF,Max Humidity, Mean Humidity, Min Humidity, Max Sea Level PressureIn, Mean Sea Level PressureIn, Min Sea Level PressureIn, Max VisibilityMiles, Mean VisibilityMiles, Min VisibilityMiles, Max Wind SpeedMPH, Mean Wind SpeedMPH, Max Gust SpeedMPH,PrecipitationIn, CloudCover, Events, WindDirDegrees
2012-10-1,68,54,43,58,49,41,97,80,56,30.38,30.24,30.09,10,10,10,14,4,23,0.00,3,,172
2012-10-2,61,52,45,46,39,28,82,60,40,30.34,30.24,30.19,10,10,10,13,3,22,0.00,0,,317
2012-10-3,68,54,41,39,31,28,79,45,24,30.43,30.37,30.32,10,10,10,20,10,30,0.00,0,,357
2012-10-4,70,52,34,44,36,26,93,67,20,30.35,30.31,30.29,10,10,10,14,3,22,0.00,0,,327
2012-10-5,72,54,35,43,36,31,96,67,22,30.34,30.30,30.25,10,8,2,12,2,18,0.00,0,,346
2012-10-6,68,52,36,46,41,33,93,74,37,30.29,30.23,30.15,10,10,2,7,1,,0.00,0,,239
2012-10-7,70,54,39,46,42,36,93,71,39,30.14,30.05,29.95,10,9,4,8,1,,0.00,0,,308
2012-10-8,66,52,39,49,44,37,93,76,47,30.03,29.97,29.94,10,9,2,9,1,,0.00,0,,177
2012-10-9,54,48,42,49,47,41,100,92,82,30.15,30.08,30.04,10,4,0,10,7,,0.00,5,Fog,168
2012-10-10,51,44,37,47,41,37,100,94,86,30.07,30.03,30.01,8,2,0,6,0,,0.00,7,Fog,169
2012-10-11,53,49,45,47,46,42,96,89,72,30.04,29.96,29.81,10,5,2,6,1,,0.00,7,,155
2012-10-12,57,52,48,52,48,45,94,85,72,29.96,29.87,29.79,10,9,5,15,9,23,0.09,8,Rain,163
2012-10-13,61,58,55,56,54,51,94,87,78,30.10,30.05,29.98,10,9,2,15,10,26,0.21,8,Rain,158
2012-10-14,64,60,55,56,55,53,97,85,67,30.03,29.89,29.81,10,9,5,25,16,48,0.26,8,Rain,162
2012-10-15,62,53,44,57,51,45,100,92,69,29.94,29.78,29.47,10,6,0,24,6,36,0.25,5,Fog-Rain,156
2012-10-16,57,52,46,50,44,40,93,71,59,30.27,29.96,29.55,10,10,10,12,6,18,0.32,4,,173
2012-10-17,55,50,45,46,44,42,93,79,64,30.35,30.29,30.23,10,10,10,12,4,16,0.09,5,,167
2012-10-18,57,50,46,52,48,45,96,87,72,30.24,29.95,29.73,10,7,2,18,3,32,0.45,8,Rain,90
2012-10-19,57,52,46,54,48,42,94,83,62,29.79,29.74,29.68,10,10,8,18,12,28,0.14,7,Rain,166
2012-10-20,50,46,41,42,38,35,93,79,59,29.87,29.84,29.78,10,8,2,13,7,18,0.36,7,Rain,156
2012-10-21,53,44,36,46,39,35,97,81,54,29.89,29.85,29.82,10,9,2,12,6,20,0.65,7,Rain,129
2012-10-22,52,44,37,43,36,31,93,75,48,29.82,29.66,29.59,10,9,4,17,8,25,0.15,4,Rain,29
2012-10-23,46,44,41,41,39,38,93,86,76,29.91,29.79,29.66,10,9,4,12,4,,0.37,8,Rain,31
2012-10-24,50,45,42,40,37,34,89,75,63,30.19,30.01,29.88,10,9,4,10,5,,0.13,8,Rain,23
2012-10-25,52,45,39,42,39,37,89,80,66,30.44,30.37,30.22,10,10,10,6,1,,0.00,5,,353
2012-10-26,48,46,43,44,41,37,96,86,71,30.34,30.15,30.03,10,8,2,12,6,,0.29,8,Rain,17
2012-10-27,55,50,44,53,46,43,97,92,74,30.04,29.90,29.72,10,5,2,16,5,32,0.78,8,Rain,48
2012-10-28,57,54,50,54,50,48,100,87,74,29.95,29.85,29.75,10,8,3,16,9,31,0.12,5,Rain,169
2012-10-29,59,54,48,54,50,46,96,90,81,29.97,29.82,29.68,10,7,2,14,7,21,0.47,8,Rain,111
2012-10-30,57,55,53,54,52,51,100,92,81,29.94,29.85,29.74,10,8,4,12,6,20,0.50,8,Rain,57
2012-10-31,62,56,51,54,51,48,96,87,68,29.76,29.68,29.57,10,8,4,21,8,40,0.68,8,Rain,47